| time (UTC) | temp C | wind direction | speed KPH | gust KPH | rain 1hr cm | rain 24hr cm | rain mn cm | humidity % | barometer mb |
| 20260906113109 | 31 | 46 | 3.2 | 14.5 | 0.00 | 0.00 | 0.00 | 59 | 1021.8 |
| 20260906111606 | 31 | 128 | 4.8 | 12.9 | 0.00 | 0.00 | 0.00 | 58 | 1021.8 |
| 20260906110106 | 31 | 34 | 1.6 | 6.4 | 0.00 | 0.00 | 0.00 | 59 | 1021.9 |
| 20260906104611 | 31 | 99 | 4.8 | 14.5 | 0.00 | 0.00 | 0.00 | 60 | 1022.0 |
| 20260906103107 | 31 | 60 | 3.2 | 12.9 | 0.00 | 0.00 | 0.00 | 62 | 1022.0 |
| 20260906101605 | 31 | 67 | 3.2 | 11.3 | 0.00 | 0.00 | 0.00 | 60 | 1022.2 |
| 20260906100112 | 30 | 11 | 4.8 | 14.5 | 0.00 | 0.00 | 0.00 | 62 | 1022.3 |
| 20260906094619 | 30 | 10 | 3.2 | 8.0 | 0.00 | 0.00 | 0.00 | 64 | 1022.4 |
| 20260906093110 | 29 | 47 | 1.6 | 9.7 | 0.00 | 0.00 | 0.00 | 63 | 1022.5 |
| 20260906091607 | 29 | 150 | 1.6 | 11.3 | 0.00 | 0.00 | 0.00 | 63 | 1022.4 |
| 20260906090120 | 28 | 126 | 4.8 | 12.9 | 0.00 | 0.00 | 0.00 | 63 | 1022.5 |
| 20260906084606 | 28 | 5 | 1.6 | 11.3 | 0.00 | 0.00 | 0.00 | 64 | 1022.4 |
| 20260906083105 | 28 | 90 | 3.2 | 9.7 | 0.00 | 0.00 | 0.00 | 67 | 1022.3 |
| 20260906081604 | 28 | 84 | 1.6 | 9.7 | 0.00 | 0.00 | 0.00 | 68 | 1022.3 |
| 20260906080123 | 27 | 111 | 1.6 | 12.9 | 0.00 | 0.00 | 0.00 | 69 | 1022.2 |
| 20260906074610 | 27 | 41 | 1.6 | 11.3 | 0.00 | 0.00 | 0.00 | 70 | 1022.1 |
| 20260906073105 | 27 | 0 | 1.6 | 9.7 | 0.00 | 0.00 | 0.00 | 70 | 1021.9 |
| 20260906071605 | 26 | 360 | 1.6 | 6.4 | 0.00 | 0.00 | 0.00 | 71 | 1021.8 |
| 20260906070121 | 26 | 360 | 1.6 | 6.4 | 0.00 | 0.00 | 0.00 | 73 | 1021.9 |
| 20260906064616 | 26 | 0 | 1.6 | 4.8 | 0.00 | 0.00 | 0.00 | 77 | 1021.8 |
| 20260906063128 | 25 | 0 | 0.0 | 0.0 | 0.00 | 0.00 | 0.00 | 79 | 1021.7 |
| 20260906061625 | 24 | 0 | 0.0 | 0.0 | 0.00 | 0.00 | 0.00 | 81 | 1021.5 |
| 20260906060108 | 23 | 0 | 0.0 | 0.0 | 0.00 | 0.00 | 0.00 | 83 | 1021.4 |
| 20260906054610 | 22 | 0 | 0.0 | 0.0 | 0.00 | 0.00 | 0.00 | 85 | 1021.3 |
| 20260906053106 | 22 | 0 | 0.0 | 0.0 | 0.00 | 0.00 | 0.00 | 85 | 1021.3 |
| 20260906051605 | 22 | 0 | 0.0 | 0.0 | 0.00 | 0.00 | 0.00 | 85 | 1021.0 |
| 20260906050107 | 22 | 0 | 0.0 | 0.0 | 0.00 | 0.00 | 0.00 | 85 | 1021.0 |
| 20260906044605 | 22 | 0 | 0.0 | 1.6 | 0.00 | 0.00 | 0.00 | 85 | 1020.8 |
| 20260906043104 | 22 | 0 | 0.0 | 1.6 | 0.00 | 0.00 | 0.00 | 85 | 1020.7 |
| 20260906041604 | 22 | 0 | 0.0 | 1.6 | 0.00 | 0.00 | 0.00 | 84 | 1020.6 |
| 20260906040106 | 22 | 0 | 0.0 | 1.6 | 0.00 | 0.00 | 0.00 | 86 | 1020.3 |
| 20260906034607 | 22 | 0 | 0.0 | 0.0 | 0.00 | 0.00 | 0.00 | 85 | 1020.0 |
| 20260906033107 | 22 | 0 | 0.0 | 0.0 | 0.00 | 0.00 | 0.00 | 85 | 1019.9 |
| 20260906031604 | 22 | 0 | 0.0 | 0.0 | 0.00 | 0.00 | 0.00 | 85 | 1020.0 |
| 20260906030109 | 22 | 0 | 0.0 | 0.0 | 0.00 | 0.00 | 0.00 | 84 | 1019.8 |
| 20260906024608 | 22 | 0 | 0.0 | 0.0 | 0.00 | 0.00 | 0.00 | 83 | 1019.9 |
| 20260906023103 | 22 | 0 | 0.0 | 0.0 | 0.00 | 0.00 | 0.00 | 83 | 1019.8 |
| 20260906021607 | 22 | 0 | 0.0 | 0.0 | 0.00 | 0.00 | 0.00 | 83 | 1019.8 |
| 20260906020112 | 23 | 0 | 0.0 | 0.0 | 0.00 | 0.00 | 0.00 | 82 | 1019.7 |
| 20260906014616 | 23 | 0 | 0.0 | 0.0 | 0.00 | 0.00 | 0.00 | 81 | 1019.6 |
| 20260906013108 | 23 | 0 | 0.0 | 3.2 | 0.00 | 0.00 | 0.00 | 80 | 1019.5 |
| 20260906011619 | 23 | 0 | 0.0 | 3.2 | 0.00 | 0.00 | 0.00 | 80 | 1019.5 |
| 20260906010105 | 23 | 0 | 0.0 | 3.2 | 0.00 | 0.00 | 0.00 | 79 | 1019.4 |
| 20260906004605 | 23 | 0 | 0.0 | 0.0 | 0.00 | 0.00 | 0.00 | 78 | 1019.2 |
| 20260906003110 | 23 | 0 | 0.0 | 3.2 | 0.00 | 0.00 | 0.00 | 77 | 1019.2 |
| 20260906001605 | 23 | 0 | 0.0 | 1.6 | 0.00 | 0.00 | 0.00 | 76 | 1019.3 |
| 20260906000105 | 24 | 0 | 0.0 | 1.6 | 0.00 | 0.00 | 0.00 | 75 | 1019.3 |
| 20260905234606 | 24 | 0 | 0.0 | 1.6 | 0.00 | 0.00 | 0.00 | 75 | 1019.2 |
| 20260905233134 | 24 | 0 | 0.0 | 1.6 | 0.00 | 0.00 | 0.00 | 74 | 1019.2 |
| 20260905231610 | 25 | 0 | 0.0 | 1.6 | 0.00 | 0.00 | 0.00 | 74 | 1019.1 |
| 20260905230108 | 25 | 0 | 0.0 | 0.0 | 0.00 | 0.00 | 0.00 | 74 | 1019.1 |
| 20260905224627 | 25 | 0 | 0.0 | 3.2 | 0.00 | 0.00 | 0.00 | 73 | 1018.8 |
| 20260905223108 | 25 | 0 | 0.0 | 1.6 | 0.00 | 0.00 | 0.00 | 71 | 1018.6 |
| 20260905221608 | 26 | 96 | 1.6 | 4.8 | 0.00 | 0.00 | 0.00 | 69 | 1018.5 |
| 20260905220107 | 26 | 94 | 0.0 | 6.4 | 0.00 | 0.00 | 0.00 | 68 | 1018.4 |
| 20260905214605 | 26 | 84 | 0.0 | 4.8 | 0.00 | 0.00 | 0.00 | 65 | 1018.2 |
| 20260905213103 | 27 | 0 | 0.0 | 4.8 | 0.00 | 0.00 | 0.00 | 64 | 1018.1 |
| 20260905211609 | 27 | 127 | 1.6 | 4.8 | 0.00 | 0.00 | 0.00 | 61 | 1017.9 |
| 20260905210108 | 27 | 89 | 0.0 | 6.4 | 0.00 | 0.00 | 0.00 | 59 | 1017.6 |
| 20260905204608 | 28 | 104 | 1.6 | 4.8 | 0.00 | 0.00 | 0.00 | 58 | 1017.5 |
| 20260905203108 | 28 | 0 | 1.6 | 6.4 | 0.00 | 0.00 | 0.00 | 57 | 1017.5 |
| 20260905201614 | 28 | 0 | 1.6 | 6.4 | 0.00 | 0.00 | 0.00 | 58 | 1017.5 |
| 20260905200107 | 28 | 0 | 0.0 | 3.2 | 0.00 | 0.00 | 0.00 | 59 | 1017.4 |
| 20260905194605 | 28 | 0 | 0.0 | 0.0 | 0.00 | 0.00 | 0.00 | 59 | 1017.3 |
| 20260905193104 | 28 | 0 | 0.0 | 0.0 | 0.00 | 0.00 | 0.00 | 58 | 1017.1 |
| 20260905191611 | 29 | 0 | 0.0 | 0.0 | 0.00 | 0.00 | 0.00 | 56 | 1016.8 |
| 20260905190138 | 29 | 0 | 0.0 | 0.0 | 0.00 | 0.00 | 0.00 | 55 | 1016.5 |
| 20260905184623 | 30 | 0 | 0.0 | 0.0 | 0.00 | 0.00 | 0.00 | 55 | 1016.4 |
| 20260905183106 | 30 | 0 | 0.0 | 0.0 | 0.00 | 0.00 | 0.00 | 53 | 1016.1 |
| 20260905181604 | 31 | 0 | 0.0 | 3.2 | 0.00 | 0.00 | 0.00 | 51 | 1015.9 |
| 20260905180108 | 32 | 0 | 0.0 | 1.6 | 0.00 | 0.00 | 0.00 | 50 | 1015.7 |
| 20260905174606 | 32 | 0 | 0.0 | 1.6 | 0.00 | 0.00 | 0.00 | 47 | 1015.6 |
| 20260905173113 | 33 | 0 | 0.0 | 1.6 | 0.00 | 0.00 | 0.00 | 46 | 1015.5 |
| 20260905171607 | 34 | 0 | 0.0 | 3.2 | 0.00 | 0.00 | 0.00 | 44 | 1015.4 |
| 20260905170123 | 34 | 0 | 0.0 | 4.8 | 0.00 | 0.00 | 0.00 | 42 | 1015.4 |
| 20260905164606 | 35 | 0 | 0.0 | 4.8 | 0.00 | 0.00 | 0.00 | 42 | 1015.3 |
| 20260905163112 | 36 | 0 | 0.0 | 4.8 | 0.00 | 0.00 | 0.00 | 39 | 1015.2 |
| 20260905161608 | 36 | 322 | 0.0 | 4.8 | 0.00 | 0.00 | 0.00 | 38 | 1015.2 |
| 20260905160110 | 36 | 290 | 0.0 | 4.8 | 0.00 | 0.00 | 0.00 | 37 | 1015.0 |
| 20260905154609 | 36 | 332 | 0.0 | 6.4 | 0.00 | 0.00 | 0.00 | 38 | 1015.1 |
| 20260905153109 | 36 | 355 | 1.6 | 6.4 | 0.00 | 0.00 | 0.00 | 37 | 1015.1 |
| 20260905151605 | 36 | 186 | 1.6 | 11.3 | 0.00 | 0.00 | 0.00 | 38 | 1015.1 |
| 20260905150105 | 36 | 0 | 1.6 | 9.7 | 0.00 | 0.00 | 0.00 | 37 | 1015.2 |
| 20260905144606 | 36 | 346 | 1.6 | 8.0 | 0.00 | 0.00 | 0.00 | 38 | 1015.2 |
| 20260905143107 | 36 | 302 | 1.6 | 6.4 | 0.00 | 0.00 | 0.00 | 37 | 1015.3 |
| 20260905141630 | 36 | 239 | 3.2 | 11.3 | 0.00 | 0.00 | 0.00 | 38 | 1015.6 |
| 20260905140109 | 36 | 290 | 3.2 | 11.3 | 0.00 | 0.00 | 0.00 | 37 | 1015.8 |
| 20260905134604 | 36 | 295 | 3.2 | 12.9 | 0.00 | 0.00 | 0.00 | 38 | 1015.9 |
| 20260905133105 | 36 | 323 | 3.2 | 11.3 | 0.00 | 0.00 | 0.00 | 37 | 1015.9 |
| 20260905131632 | 35 | 232 | 1.6 | 11.3 | 0.00 | 0.00 | 0.00 | 37 | 1016.0 |
| 20260905130123 | 35 | 219 | 1.6 | 12.9 | 0.00 | 0.00 | 0.00 | 39 | 1016.1 |
| 20260905124614 | 35 | 0 | 1.6 | 6.4 | 0.00 | 0.00 | 0.00 | 39 | 1016.4 |
| 20260905123112 | 35 | 207 | 1.6 | 6.4 | 0.00 | 0.00 | 0.00 | 37 | 1016.6 |
| 20260905121606 | 35 | 297 | 1.6 | 9.7 | 0.00 | 0.00 | 0.00 | 37 | 1016.6 |
| 20260905120127 | 34 | 272 | 1.6 | 11.3 | 0.00 | 0.00 | 0.00 | 36 | 1017.0 |
| 20260905114624 | 33 | 311 | 1.6 | 6.4 | 0.00 | 0.00 | 0.00 | 38 | 1016.9 |